This is the latest recevied weather packets stored in our database for station/object N2OCK. If no packets are shown the sender has not sent any weather packets the latest 10 day(s).
| Time | Temp. | Humidity | Pressure | Rain* | Wind** | Luminosity | Snow |
|---|---|---|---|---|---|---|---|
| 1777986971 | 18.33° C | 74% | 1012 hPa | 0 mm | - | 416 W/m² | - |
| 1777986669 | 17.78° C | 74% | 1011.9 hPa | 0 mm | - | 403 W/m² | - |
| 1777986367 | 17.78° C | 75% | 1011.9 hPa | 0 mm | - | 392 W/m² | - |
| 1777986065 | 17.78° C | 75% | 1011.6 hPa | 0 mm | - | 381 W/m² | - |
| 1777985761 | 17.22° C | 76% | 1011.8 hPa | 0 mm | - | 365 W/m² | - |
| 1777985459 | 17.22° C | 78% | 1011.7 hPa | 0 mm | - | 355 W/m² | - |
| 1777985155 | 16.67° C | 78% | 1011.5 hPa | 0 mm | - | 350 W/m² | - |
| 1777984851 | 16.11° C | 79% | 1011.6 hPa | 0 mm | - | 326 W/m² | - |
| 1777984548 | 15.56° C | 81% | 1011.5 hPa | 0 mm | - | 126 W/m² | - |
| 1777984244 | 15.56° C | 82% | 1011.6 hPa | 0 mm | - | 122 W/m² | - |
| 1777983941 | 15.56° C | 81% | 1011.6 hPa | 0 mm | - | 137 W/m² | - |
| 1777983638 | 16.11° C | 81% | 1011.8 hPa | 0 mm | - | 142 W/m² | - |
| 1777983334 | 15.56° C | 82% | 1011.7 hPa | 0 mm | - | 249 W/m² | - |
| 1777983032 | 15.56° C | 83% | 1011.6 hPa | 0 mm | - | 132 W/m² | - |
| 1777982728 | 15° C | 84% | 1011.7 hPa | 0 mm | - | 141 W/m² | - |
| 1777982423 | 15° C | 85% | 1011.7 hPa | 0 mm | - | 126 W/m² | - |
| 1777982118 | 14.44° C | 86% | 1011.7 hPa | 0 mm | - | 134 W/m² | - |
| 1777981816 | 14.44° C | 87% | 1011.7 hPa | 0 mm | - | 102 W/m² | - |
| 1777981513 | 14.44° C | 87% | 1011.9 hPa | 0 mm | - | 81 W/m² | - |
| 1777981209 | 14.44° C | 87% | 1012.1 hPa | 0 mm | - | 97 W/m² | - |
| 1777980906 | 14.44° C | 87% | 1011.9 hPa | 0 mm | - | 89 W/m² | - |
| 1777980601 | 14.44° C | 87% | 1012 hPa | 0 mm | - | 94 W/m² | - |
| 1777980299 | 13.89° C | 89% | 1011.9 hPa | 0 mm | - | 116 W/m² | - |
| 1777979996 | 13.33° C | 91% | 1011.8 hPa | 0 mm | - | 72 W/m² | - |
| 1777979696 | 12.78° C | 92% | 1011.7 hPa | 0 mm | - | 57 W/m² | - |
* Rain latest hour (hover to see other rain measurements)
** Current wind speed in m/s (hover to see current wind gust speed)